TimeCDT,TemperatureF,Dew PointF,Humidity,Sea Level PressureIn,VisibilityMPH,Wind Direction,Wind SpeedMPH,Gust SpeedMPH,PrecipitationIn,Events,Conditions,WindDirDegrees,DateUTC
12:15 AM,66.2,59.0,78,30.13,10.0,NNE,8.1,-,0.00,,Clear,30,2013-05-24 05:15:00
12:35 AM,66.2,60.8,83,30.14,9.0,NNE,10.4,-,0.00,,Mostly Cloudy,30,2013-05-24 05:35:00
12:55 AM,66.2,59.0,78,30.15,10.0,NE,11.5,-,0.00,,Mostly Cloudy,40,2013-05-24 05:55:00
1:15 AM,64.4,59.0,83,30.16,10.0,NNE,10.4,-,0.00,,Mostly Cloudy,30,2013-05-24 06:15:00
1:35 AM,64.4,60.8,88,30.15,10.0,NNE,8.1,-,0.00,,Partly Cloudy,30,2013-05-24 06:35:00
1:55 AM,64.4,60.8,88,30.15,10.0,NNE,8.1,-,0.00,,Clear,30,2013-05-24 06:55:00
2:15 AM,62.6,60.8,94,30.16,10.0,NNE,10.4,-,0.00,,Clear,30,2013-05-24 07:15:00
2:35 AM,62.6,60.8,94,30.16,10.0,NNE,10.4,-,0.00,,Clear,30,2013-05-24 07:35:00
2:55 AM,62.6,60.8,94,30.16,10.0,NNE,9.2,-,0.00,,Clear,20,2013-05-24 07:55:00
3:15 AM,60.8,60.8,100,30.16,10.0,NNE,12.7,16.1,0.00,,Clear,30,2013-05-24 08:15:00
3:35 AM,60.8,57.2,88,30.17,10.0,NE,11.5,-,0.00,,Clear,40,2013-05-24 08:35:00
3:55 AM,59.0,55.4,88,30.17,10.0,NE,8.1,-,0.00,,Clear,40,2013-05-24 08:55:00
4:15 AM,59.0,55.4,88,30.17,9.0,NNE,9.2,-,0.00,,Clear,30,2013-05-24 09:15:00
4:35 AM,57.2,55.4,94,30.18,10.0,NNE,9.2,-,0.00,,Clear,30,2013-05-24 09:35:00
4:55 AM,57.2,55.4,94,30.19,10.0,NNE,10.4,-,0.00,,Clear,30,2013-05-24 09:55:00
5:15 AM,57.2,53.6,88,30.19,10.0,NNE,11.5,-,0.00,,Clear,30,2013-05-24 10:15:00
5:35 AM,55.4,53.6,94,30.20,10.0,NNE,9.2,-,0.00,,Clear,30,2013-05-24 10:35:00
5:55 AM,55.4,53.6,94,30.21,10.0,NE,9.2,-,0.00,,Clear,40,2013-05-24 10:55:00
6:15 AM,55.4,53.6,94,30.22,10.0,NNE,12.7,-,0.00,,Clear,30,2013-05-24 11:15:00
6:35 AM,55.4,53.6,94,30.23,9.0,NNE,11.5,18.4,0.00,,Clear,30,2013-05-24 11:35:00
6:50 AM,55.4,53.6,94,30.27,10.0,NE,127.7,-,N/A,,Mostly Cloudy,40,2013-05-24 11:50:00
6:55 AM,55.4,53.6,94,30.24,10.0,NNE,9.2,-,0.00,,Clear,30,2013-05-24 11:55:00
7:50 AM,55.4,53.6,94,30.29,10.0,NE,12.7,20.7,N/A,,Mostly Cloudy,50,2013-05-24 12:50:00
10:50 AM,62.6,51.8,68,30.30,10.0,NE,11.5,19.6,N/A,,Mostly Cloudy,40,2013-05-24 15:50:00
11:50 AM,66.2,48.2,52,30.31,10.0,NNE,13.8,-,N/A,,Scattered Clouds,30,2013-05-24 16:50:00
12:50 PM,69.8,48.2,46,30.30,10.0,NNE,9.2,-,N/A,,Scattered Clouds,30,2013-05-24 17:50:00
2:50 PM,73.4,48.2,41,30.29,10.0,ENE,9.2,-,N/A,,Scattered Clouds,70,2013-05-24 19:50:00
3:50 PM,73.4,46.4,38,30.27,10.0,ENE,12.7,-,N/A,,Scattered Clouds,60,2013-05-24 20:50:00
4:50 PM,73.4,48.2,41,30.26,10.0,ENE,9.2,-,N/A,,Scattered Clouds,60,2013-05-24 21:50:00
5:50 PM,73.4,48.2,41,30.23,10.0,ENE,9.2,-,N/A,,Scattered Clouds,70,2013-05-24 22:50:00
7:50 PM,68.0,51.8,56,30.24,10.0,ENE,5.8,-,N/A,,Scattered Clouds,70,2013-05-25 00:50:00
9:15 PM,64.4,51.8,64,30.24,10.0,Calm,Calm,-,0.00,,Clear,0,2013-05-25 02:15:00
9:35 PM,64.4,51.8,64,30.24,10.0,NE,4.6,-,0.00,,Clear,50,2013-05-25 02:35:00
9:55 PM,62.6,51.8,68,30.25,10.0,Calm,Calm,-,0.00,,Clear,0,2013-05-25 02:55:00
10:15 PM,62.6,51.8,68,30.26,10.0,Calm,Calm,-,0.00,,Clear,0,2013-05-25 03:15:00
10:35 PM,62.6,51.8,68,30.26,10.0,Calm,Calm,-,0.00,,Clear,0,2013-05-25 03:35:00
10:55 PM,60.8,53.6,77,30.27,10.0,Calm,Calm,-,0.00,,Clear,0,2013-05-25 03:55:00
11:15 PM,60.8,53.6,77,30.27,10.0,Calm,Calm,-,0.00,,Clear,0,2013-05-25 04:15:00
11:35 PM,60.8,53.6,77,30.27,10.0,Calm,Calm,-,0.00,,Clear,0,2013-05-25 04:35:00
11:55 PM,59.0,53.6,82,30.26,10.0,Calm,Calm,-,0.00,,Clear,0,2013-05-25 04:55:00